DECAYED
Showing default

IRIS-A, 51044 (Decayed)

Orbit data source: Space-Track

IRIS-A, 51044 was a payload satellite owned by NCKU (TW) in LEO that was launched on Thu, 13 Jan 2022 UTC via an FALCON 9 launch vehicle from the Air Force Eastern Test Range (AFETR). Payload-class satellites include a variety of spacecraft equipped with specific instruments for various scientific and technological missions. These include communications satellites like Starlink; space stations such as the ISS; scientific satellites like the Hubble; Earth observation satellites from companies like Planet Labs, Umbra, and HawkEye 360; GPS; miniature CubeSats for education and research; and military/defense satellites.

Not visible in the next 10 days
Identifier
51044, 2022-002BN
Orbit
Decayed
Country
Flag of TWTW / TWN
Related business
Manufacturer
NCKU
Mission
Decayed Amateur Communications
Bus & Motor
CUBESAT 2U, Unknown motor
Mass
3 kg wet, 3 kg dry
Launch date (UTC)
2022-01-13 (5 years ago)
Launch vehicle
FALCON 9
Launch site
Air Force Eastern Test Range (AFETR)
Object type
Payload
Rocket body
Debris
Shape & HBR
Box, 0.1 m
Radar Cross Section
0.025 m², Medium (>0.1 m² and < 1m²)

Expand to show TLE details & history
Last TLE update: 1 year ago

TLE from 1 year ago
0 IRIS-A
1 51044U 22002BN  25156.23223756  .06819668  24683-5  74732-3 0  9997
2 51044  97.2958 237.7951 0014427 259.4872 100.4801 16.37001057189221
Epoch: 2025-06-05T05:34Z
TLE epoch observation values (Epoch: 2025-06-05T05:34:25.325Z)
Latitude
0.00001°
Longitude
-99.71424°
Altitude
178.776 km
Speed
7.798 km/s
True Right ascension
15h 51m 10s
True Declination
0° 00' 00"
Sunlit
Object was in full shadow at epoch
Visualization orbit readout
Latitude
Unknown
Longitude
Unknown
Altitude
Unknown
Speed
Unknown
Apparent Right ascension
Unknown
Apparent Declination
Unknown
Sunlit
N/A
Visualization observer readout
Local Sidereal Time
12:34:38
Azimuth
Unknown
Elevation
Unknown
Doppler factor
Unknown
Orbital elements
Apogee altitude
180.047 km
Perigee altitude
161.151 km
Semi-major axis
6,548.736 km
Eccentricity
0.00144
Inclination
97.2958°
RAAN
237.7951°
Arg. of periapsis
259.4872°
True anomaly
100.64261°
Mean anomaly
100.4801°
Eccentric anomaly
100.56136°
Mean motion
4.0955 °/min
Orbital period
87.9 mins
BSTAR
0.00074732
Loading maneuver chart data...
Computing Atmospheric mass density...

Documentation

Showing up to 5 results
|